COSMOS 1691 DEB, 20284

Orbit data source: Space-Track

COSMOS 1691 DEB, 20284 is space debris in LEO originally from a launch on Wed, 09 Oct 1985 UTC launched from the Plesetsk Missile And Space Complex (PKMTR). Debris objects in space refer to the collection of defunct objects orbiting the Earth. Examples of debris include non-operational satellites, rocket bodies, and fragments generated from explosions, collisions, or faulty payload assembly.

Loading next visibility...
Identifier
20284, 1985-094X
Orbit
LEO
Country
Flag of CISCIS
Related business
Manufacturer
Unknown
Mission
Spacecraft
Bus & Motor
Unknown
Mass
Unknown
Launch date (UTC)
1985-10-09 (41 years ago)
Launch vehicle
Unknown
Launch site
Plesetsk Missile And Space Complex (PKMTR)
Object type
Payload
Rocket body
Debris
Shape & HBR
Unknown shape, 0.1 m
Radar Cross Section
Small (<0.1 m²)

Expand to show TLE details & history
Last TLE update: 1 day ago

TLE from 1 day ago
0 COSMOS 1691 DEB
1 20284U 85094X   26126.04854353  .00000206  00000-0  15159-2 0  9992
2 20284  83.1915 146.3693 0220694 305.9225  79.4286 12.31602397560423
Epoch: 2026-05-06T01:09Z
TLE epoch observation values (Epoch: 2026-05-06T01:09:54.160Z)
Latitude
27.67274°
Longitude
-91.44889°
Altitude
1,517.314 km
Speed
7.121 km/s
True Right ascension
09h 59m 45s
True Declination
27° 32' 42"
Sunlit
Object was in daylight at epoch
Visualization orbit readout
Latitude
Unknown
Longitude
Unknown
Altitude
Unknown
Speed
Unknown
Apparent Right ascension
Unknown
Apparent Declination
Unknown
Sunlit
N/A
Visualization observer readout
Local Sidereal Time
19:54:15
Azimuth
Unknown
Elevation
Unknown
Doppler factor
Unknown
Orbital elements
Apogee altitude
1,714.487 km
Perigee altitude
1,365.001 km
Semi-major axis
7,917.881 km
Eccentricity
0.02207
Inclination
83.1915°
RAAN
146.3693°
Arg. of periapsis
305.9225°
True anomaly
81.92649°
Mean anomaly
79.4286°
Eccentric anomaly
80.67638°
Mean motion
3.08056 °/min
Orbital period
116.86 mins
BSTAR
0.0015159
Loading maneuver chart data...
Computing Atmospheric mass density...
Loading historical data...
Loading historical data...
Loading historical data...
Loading historical data...
Loading historical data...
Loading historical data...
Loading historical data...

Documentation

Showing up to 5 results
|